{"data":{"norad_id":68154,"epoch":"2026-09-20T00:32:07.889856Z","epoch_age_seconds":97412,"freshness":"FRESH","line1":"1 68154U 26049N   26263.02231354  .00012306  00000+0  38277-3 0  9995","line2":"2 68154  97.2840 282.9209 0001667  97.3556 262.7876 15.33454466 29429","mean_motion":15.33454466,"eccentricity":0.0001667,"inclination_deg":97.284,"raan_deg":282.9209,"arg_perigee_deg":97.3556,"mean_anomaly_deg":262.7876,"bstar":0.00038277,"rev_number":2942,"period_min":93.905624974716,"perigee_km":464.37417367676,"apogee_km":466.65584725705,"semimajor_km":6843.6520104669,"source":"CELESTRAK","updated_at":"2026-09-20T09:00:43.794374Z"}}